owner,sensor,date,latitude,longitude,vertical_datum,wind_speed,wind_to_direction,wind_speed_of_gust,qcFlag 
TCOON,ioos:station:TCOON:005:1,2011-10-01T00:00:00Z,27.6346,-97.2370,0.0,4.9,94.0,6.0,'11111222,11111222,11111222' 
TCOON,ioos:station:TCOON:005:1,2011-10-01T01:00:00Z,27.6346,-97.2370,0.0,3.2,113.0,3.9,'11111222,11111222,11111222' 
TCOON,ioos:station:TCOON:005:1,2011-10-01T02:00:00Z,27.6346,-97.2370,0.0,2.7,105.0,3.8,'11111222,11111222,11111222' 
TCOON,ioos:station:TCOON:005:1,2011-10-01T03:00:00Z,27.6346,-97.2370,0.0,3.6,97.0,4.7,'11111222,11111222,11111222' 
TCOON,ioos:station:TCOON:005:1,2011-10-01T04:00:00Z,27.6346,-97.2370,0.0,4.4,87.0,5.3,'11111222,11111222,11111222' 
TCOON,ioos:station:TCOON:005:1,2011-10-01T05:00:00Z,27.6346,-97.2370,0.0,4.8,78.0,5.4,'11111222,11111222,11111222' 
TCOON,ioos:station:TCOON:005:1,2011-10-01T06:00:00Z,27.6346,-97.2370,0.0,4.4,77.0,5.2,'11111222,11111222,11111222' 
TCOON,ioos:station:TCOON:005:1,2011-10-01T07:00:00Z,27.6346,-97.2370,0.0,4.4,67.0,5.1,'11111222,11111222,11111222' 
TCOON,ioos:station:TCOON:005:1,2011-10-01T08:00:00Z,27.6346,-97.2370,0.0,3.8,83.0,4.7,'11111222,11111222,11111222' 
TCOON,ioos:station:TCOON:005:1,2011-10-01T09:00:00Z,27.6346,-97.2370,0.0,4.1,75.0,4.8,'11111222,11111222,11111222' 
TCOON,ioos:station:TCOON:005:1,2011-10-01T10:00:00Z,27.6346,-97.2370,0.0,4.0,57.0,4.7,'11111222,11111222,11111222' 
TCOON,ioos:station:TCOON:005:1,2011-10-01T11:00:00Z,27.6346,-97.2370,0.0,3.3,53.0,4.0,'11111222,11111222,11111222' 
TCOON,ioos:station:TCOON:005:1,2011-10-01T12:00:00Z,27.6346,-97.2370,0.0,4.5,31.0,5.6,'11111222,11111222,11111222' 
TCOON,ioos:station:TCOON:005:1,2011-10-01T13:00:00Z,27.6346,-97.2370,0.0,7.3,36.0,8.4,'11111222,11111222,11111222' 
TCOON,ioos:station:TCOON:005:1,2011-10-01T14:00:00Z,27.6346,-97.2370,0.0,6.0,38.0,7.3,'11111222,11111222,11111222' 
TCOON,ioos:station:TCOON:005:1,2011-10-01T15:00:00Z,27.6346,-97.2370,0.0,5.7,83.0,7.4,'11111222,11111222,11111222' 
TCOON,ioos:station:TCOON:005:1,2011-10-01T16:00:00Z,27.6346,-97.2370,0.0,6.6,90.0,8.3,'11111222,11111222,11111222' 
TCOON,ioos:station:TCOON:005:1,2011-10-01T17:00:00Z,27.6346,-97.2370,0.0,8.1,83.0,9.1,'11111222,11111222,11111222' 
TCOON,ioos:station:TCOON:005:1,2011-10-01T18:00:00Z,27.6346,-97.2370,0.0,6.4,79.0,8.6,'11111222,11111222,11111222' 
TCOON,ioos:station:TCOON:005:1,2011-10-01T19:00:00Z,27.6346,-97.2370,0.0,8.0,73.0,9.6,'11111222,11111222,11111222' 
TCOON,ioos:station:TCOON:005:1,2011-10-01T20:00:00Z,27.6346,-97.2370,0.0,6.6,79.0,9.9,'11111222,11111222,11111222' 
TCOON,ioos:station:TCOON:005:1,2011-10-01T21:00:00Z,27.6346,-97.2370,0.0,8.6,94.0,10.2,'11111222,11111222,11111222' 
TCOON,ioos:station:TCOON:005:1,2011-10-01T22:00:00Z,27.6346,-97.2370,0.0,8.5,89.0,10.4,'11111222,11111222,11111222' 
TCOON,ioos:station:TCOON:005:1,2011-10-01T23:00:00Z,27.6346,-97.2370,0.0,6.7,93.0,8.9,'11111222,11111222,11111222' 
TCOON,ioos:station:TCOON:005:1,2011-10-02T00:00:00Z,27.6346,-97.2370,0.0,5.9,110.0,7.3,'11111222,11111222,11111222' 
TCOON,ioos:station:TCOON:005:1,2011-10-02T01:00:00Z,27.6346,-97.2370,0.0,5.3,105.0,7.3,'11111222,11111222,11111222' 
TCOON,ioos:station:TCOON:005:1,2011-10-02T02:00:00Z,27.6346,-97.2370,0.0,5.5,99.0,7.0,'11111222,11111222,11111222' 
TCOON,ioos:station:TCOON:005:1,2011-10-02T03:00:00Z,27.6346,-97.2370,0.0,6.4,90.0,9.4,'11111222,11111222,11111222' 
TCOON,ioos:station:TCOON:005:1,2011-10-02T04:00:00Z,27.6346,-97.2370,0.0,4.8,102.0,7.0,'11111222,11111222,11111222' 
TCOON,ioos:station:TCOON:005:1,2011-10-02T05:00:00Z,27.6346,-97.2370,0.0,5.7,90.0,8.0,'11111222,11111222,11111222' 
TCOON,ioos:station:TCOON:005:1,2011-10-02T06:00:00Z,27.6346,-97.2370,0.0,5.2,103.0,6.6,'11111222,11111222,11111222' 
TCOON,ioos:station:TCOON:005:1,2011-10-02T07:00:00Z,27.6346,-97.2370,0.0,5.3,101.0,7.0,'11111222,11111222,11111222' 
TCOON,ioos:station:TCOON:005:1,2011-10-02T08:00:00Z,27.6346,-97.2370,0.0,6.4,95.0,7.7,'11111222,11111222,11111222' 
TCOON,ioos:station:TCOON:005:1,2011-10-02T09:00:00Z,27.6346,-97.2370,0.0,5.6,86.0,6.8,'11111222,11111222,11111222' 
TCOON,ioos:station:TCOON:005:1,2011-10-02T10:00:00Z,27.6346,-97.2370,0.0,5.7,88.0,7.6,'11111222,11111222,11111222' 
TCOON,ioos:station:TCOON:005:1,2011-10-02T11:00:00Z,27.6346,-97.2370,0.0,4.7,81.0,5.7,'11111222,11111222,11111222' 
TCOON,ioos:station:TCOON:005:1,2011-10-02T12:00:00Z,27.6346,-97.2370,0.0,4.7,80.0,6.3,'11111222,11111222,11111222' 
TCOON,ioos:station:TCOON:005:1,2011-10-02T13:00:00Z,27.6346,-97.2370,0.0,4.4,84.0,5.8,'11111222,11111222,11111222' 
TCOON,ioos:station:TCOON:005:1,2011-10-02T14:00:00Z,27.6346,-97.2370,0.0,3.9,17.0,4.8,'11111222,11111222,11111222' 
TCOON,ioos:station:TCOON:005:1,2011-10-02T15:00:00Z,27.6346,-97.2370,0.0,4.8,18.0,6.8,'11111222,11111222,11111222' 
TCOON,ioos:station:TCOON:005:1,2011-10-02T16:00:00Z,27.6346,-97.2370,0.0,5.0,32.0,6.1,'11111222,11111222,11111222' 
TCOON,ioos:station:TCOON:005:1,2011-10-02T17:00:00Z,27.6346,-97.2370,0.0,5.1,88.0,6.4,'11111222,11111222,11111222' 
TCOON,ioos:station:TCOON:005:1,2011-10-02T18:00:00Z,27.6346,-97.2370,0.0,7.2,64.0,9.1,'11111222,11111222,11111222' 
TCOON,ioos:station:TCOON:005:1,2011-10-02T19:00:00Z,27.6346,-97.2370,0.0,6.5,57.0,9.5,'11111222,11111222,11111222' 
TCOON,ioos:station:TCOON:005:1,2011-10-02T20:00:00Z,27.6346,-97.2370,0.0,7.7,72.0,11.0,'11111222,11111222,11111222' 
TCOON,ioos:station:TCOON:005:1,2011-10-02T21:00:00Z,27.6346,-97.2370,0.0,5.3,79.0,7.6,'11111222,11111222,11111222' 
TCOON,ioos:station:TCOON:005:1,2011-10-02T22:00:00Z,27.6346,-97.2370,0.0,5.4,99.0,6.5,'11111222,11111222,11111222' 
TCOON,ioos:station:TCOON:005:1,2011-10-02T23:00:00Z,27.6346,-97.2370,0.0,4.5,96.0,6.8,'11111222,11111222,11111222' 
TCOON,ioos:station:TCOON:005:1,2011-10-03T00:00:00Z,27.6346,-97.2370,0.0,4.9,121.0,6.0,'11111222,11111222,11111222' 
TCOON,ioos:station:TCOON:005:1,2011-10-03T01:00:00Z,27.6346,-97.2370,0.0,3.1,123.0,4.2,'11111222,11111222,11111222' 
TCOON,ioos:station:TCOON:005:1,2011-10-03T02:00:00Z,27.6346,-97.2370,0.0,3.4,134.0,5.0,'11111222,11111222,11111222' 
TCOON,ioos:station:TCOON:005:1,2011-10-03T03:00:00Z,27.6346,-97.2370,0.0,2.8,135.0,3.9,'11111222,11111222,11111222' 
TCOON,ioos:station:TCOON:005:1,2011-10-03T04:00:00Z,27.6346,-97.2370,0.0,3.1,124.0,4.8,'11111222,11111222,11111222' 
TCOON,ioos:station:TCOON:005:1,2011-10-03T05:00:00Z,27.6346,-97.2370,0.0,3.0,116.0,3.8,'11111222,11111222,11111222' 
TCOON,ioos:station:TCOON:005:1,2011-10-03T06:00:00Z,27.6346,-97.2370,0.0,2.0,131.0,2.8,'11111222,11111222,11111222' 
TCOON,ioos:station:TCOON:005:1,2011-10-03T07:00:00Z,27.6346,-97.2370,0.0,3.0,127.0,4.1,'11111222,11111222,11111222' 
TCOON,ioos:station:TCOON:005:1,2011-10-03T08:00:00Z,27.6346,-97.2370,0.0,2.3,113.0,3.2,'11111222,11111222,11111222' 
TCOON,ioos:station:TCOON:005:1,2011-10-03T09:00:00Z,27.6346,-97.2370,0.0,1.8,132.0,3.5,'11111222,11111222,11111222' 
TCOON,ioos:station:TCOON:005:1,2011-10-03T10:00:00Z,27.6346,-97.2370,0.0,2.7,118.0,3.3,'11111222,11111222,11111222' 
TCOON,ioos:station:TCOON:005:1,2011-10-03T11:00:00Z,27.6346,-97.2370,0.0,2.4,105.0,2.7,'11111222,11111222,11111222' 
TCOON,ioos:station:TCOON:005:1,2011-10-03T12:00:00Z,27.6346,-97.2370,0.0,3.2,87.0,4.0,'11111222,11111222,11111222' 
TCOON,ioos:station:TCOON:005:1,2011-10-03T13:00:00Z,27.6346,-97.2370,0.0,4.5,88.0,5.3,'11111222,11111222,11111222' 
TCOON,ioos:station:TCOON:005:1,2011-10-03T14:00:00Z,27.6346,-97.2370,0.0,5.9,61.0,6.8,'11111222,11111222,11111222' 
TCOON,ioos:station:TCOON:005:1,2011-10-03T15:00:00Z,27.6346,-97.2370,0.0,6.2,72.0,7.1,'11111222,11111222,11111222' 
TCOON,ioos:station:TCOON:005:1,2011-10-03T16:00:00Z,27.6346,-97.2370,0.0,6.5,72.0,8.3,'11111222,11111222,11111222' 
TCOON,ioos:station:TCOON:005:1,2011-10-03T17:00:00Z,27.6346,-97.2370,0.0,4.0,77.0,6.8,'11111222,11111222,11111222' 
TCOON,ioos:station:TCOON:005:1,2011-10-03T18:00:00Z,27.6346,-97.2370,0.0,5.5,92.0,7.2,'11111222,11111222,11111222' 
TCOON,ioos:station:TCOON:005:1,2011-10-03T19:00:00Z,27.6346,-97.2370,0.0,5.1,103.0,8.6,'11111222,11111222,11111222' 
TCOON,ioos:station:TCOON:005:1,2011-10-03T20:00:00Z,27.6346,-97.2370,0.0,5.7,98.0,8.9,'11111222,11111222,11111222' 
TCOON,ioos:station:TCOON:005:1,2011-10-03T21:00:00Z,27.6346,-97.2370,0.0,6.7,104.0,8.0,'11111222,11111222,11111222' 
TCOON,ioos:station:TCOON:005:1,2011-10-03T22:00:00Z,27.6346,-97.2370,0.0,5.7,90.0,7.8,'11111222,11111222,11111222' 
TCOON,ioos:station:TCOON:005:1,2011-10-03T23:00:00Z,27.6346,-97.2370,0.0,5.3,97.0,7.2,'11111222,11111222,11111222' 
TCOON,ioos:station:TCOON:005:1,2011-10-04T00:00:00Z,27.6346,-97.2370,0.0,5.2,102.0,6.2,'11111222,11111222,11111222' 
TCOON,ioos:station:TCOON:005:1,2011-10-04T01:00:00Z,27.6346,-97.2370,0.0,4.5,87.0,5.8,'11111222,11111222,11111222' 
TCOON,ioos:station:TCOON:005:1,2011-10-04T02:00:00Z,27.6346,-97.2370,0.0,4.6,91.0,5.5,'11111222,11111222,11111222' 
TCOON,ioos:station:TCOON:005:1,2011-10-04T03:00:00Z,27.6346,-97.2370,0.0,4.0,113.0,5.4,'11111222,11111222,11111222' 
TCOON,ioos:station:TCOON:005:1,2011-10-04T04:00:00Z,27.6346,-97.2370,0.0,2.6,110.0,3.2,'11111222,11111222,11111222' 
TCOON,ioos:station:TCOON:005:1,2011-10-04T05:00:00Z,27.6346,-97.2370,0.0,3.5,102.0,4.2,'11111222,11111222,11111222' 
TCOON,ioos:station:TCOON:005:1,2011-10-04T06:00:00Z,27.6346,-97.2370,0.0,3.0,115.0,4.1,'11111222,11111222,11111222' 
TCOON,ioos:station:TCOON:005:1,2011-10-04T07:00:00Z,27.6346,-97.2370,0.0,3.0,113.0,4.1,'11111222,11111222,11111222' 
TCOON,ioos:station:TCOON:005:1,2011-10-04T08:00:00Z,27.6346,-97.2370,0.0,2.2,136.0,2.8,'11111222,11111222,11111222' 
TCOON,ioos:station:TCOON:005:1,2011-10-04T09:00:00Z,27.6346,-97.2370,0.0,1.9,113.0,2.5,'11111222,11111222,11111222' 
TCOON,ioos:station:TCOON:005:1,2011-10-04T10:00:00Z,27.6346,-97.2370,0.0,1.1,124.0,1.3,'11111222,11111222,11111222' 
TCOON,ioos:station:TCOON:005:1,2011-10-04T11:00:00Z,27.6346,-97.2370,0.0,2.0,94.0,2.4,'11111222,11111222,11111222' 
TCOON,ioos:station:TCOON:005:1,2011-10-04T12:00:00Z,27.6346,-97.2370,0.0,2.4,124.0,3.3,'11111222,11111222,11111222' 
TCOON,ioos:station:TCOON:005:1,2011-10-04T13:00:00Z,27.6346,-97.2370,0.0,2.6,24.0,3.6,'11111222,11111222,11111222' 
TCOON,ioos:station:TCOON:005:1,2011-10-04T14:00:00Z,27.6346,-97.2370,0.0,3.7,22.0,4.6,'11111222,11111222,11111222' 
TCOON,ioos:station:TCOON:005:1,2011-10-04T15:00:00Z,27.6346,-97.2370,0.0,5.4,100.0,6.5,'11111222,11111222,11111222' 
TCOON,ioos:station:TCOON:005:1,2011-10-04T16:00:00Z,27.6346,-97.2370,0.0,5.1,93.0,6.7,'11111222,11111222,11111222' 
TCOON,ioos:station:TCOON:005:1,2011-10-04T17:00:00Z,27.6346,-97.2370,0.0,4.8,87.0,6.5,'11111222,11111222,11111222' 
TCOON,ioos:station:TCOON:005:1,2011-10-04T18:00:00Z,27.6346,-97.2370,0.0,4.5,118.0,7.7,'11111222,11111222,11111222' 
TCOON,ioos:station:TCOON:005:1,2011-10-04T19:00:00Z,27.6346,-97.2370,0.0,5.3,87.0,7.1,'11111222,11111222,11111222' 
TCOON,ioos:station:TCOON:005:1,2011-10-04T20:00:00Z,27.6346,-97.2370,0.0,5.1,99.0,8.5,'11111222,11111222,11111222' 
TCOON,ioos:station:TCOON:005:1,2011-10-04T21:00:00Z,27.6346,-97.2370,0.0,6.2,93.0,7.7,'11111222,11111222,11111222' 
TCOON,ioos:station:TCOON:005:1,2011-10-04T22:00:00Z,27.6346,-97.2370,0.0,5.2,118.0,6.4,'11111222,11111222,11111222' 
TCOON,ioos:station:TCOON:005:1,2011-10-04T23:00:00Z,27.6346,-97.2370,0.0,5.7,112.0,6.7,'11111222,11111222,11111222' 
TCOON,ioos:station:TCOON:005:1,2011-10-05T00:00:00Z,27.6346,-97.2370,0.0,5.5,116.0,6.9,'11111222,11111222,11111222' 
TCOON,ioos:station:TCOON:005:1,2011-10-05T01:00:00Z,27.6346,-97.2370,0.0,5.7,107.0,7.8,'11111222,11111222,11111222' 
TCOON,ioos:station:TCOON:005:1,2011-10-05T02:00:00Z,27.6346,-97.2370,0.0,5.2,119.0,6.3,'11111222,11111222,11111222' 
TCOON,ioos:station:TCOON:005:1,2011-10-05T03:00:00Z,27.6346,-97.2370,0.0,4.6,127.0,6.5,'11111222,11111222,11111222' 
TCOON,ioos:station:TCOON:005:1,2011-10-05T04:00:00Z,27.6346,-97.2370,0.0,5.9,120.0,6.7,'11111222,11111222,11111222' 
TCOON,ioos:station:TCOON:005:1,2011-10-05T05:00:00Z,27.6346,-97.2370,0.0,5.2,125.0,6.6,'11111222,11111222,11111222' 
TCOON,ioos:station:TCOON:005:1,2011-10-05T06:00:00Z,27.6346,-97.2370,0.0,4.4,137.0,5.7,'11111222,11111222,11111222' 
TCOON,ioos:station:TCOON:005:1,2011-10-05T07:00:00Z,27.6346,-97.2370,0.0,3.9,144.0,5.5,'11111222,11111222,11111222' 
TCOON,ioos:station:TCOON:005:1,2011-10-05T08:00:00Z,27.6346,-97.2370,0.0,2.9,147.0,4.7,'11111222,11111222,11111222' 
TCOON,ioos:station:TCOON:005:1,2011-10-05T09:00:00Z,27.6346,-97.2370,0.0,2.9,153.0,4.0,'11111222,11111222,11111222' 
TCOON,ioos:station:TCOON:005:1,2011-10-05T10:00:00Z,27.6346,-97.2370,0.0,2.2,162.0,3.0,'11111222,11111222,11111222' 
TCOON,ioos:station:TCOON:005:1,2011-10-05T11:00:00Z,27.6346,-97.2370,0.0,2.4,150.0,3.0,'11111222,11111222,11111222' 
TCOON,ioos:station:TCOON:005:1,2011-10-05T12:00:00Z,27.6346,-97.2370,0.0,3.5,149.0,5.1,'11111222,11111222,11111222' 
TCOON,ioos:station:TCOON:005:1,2011-10-05T13:00:00Z,27.6346,-97.2370,0.0,3.1,150.0,4.0,'11111222,11111222,11111222' 
TCOON,ioos:station:TCOON:005:1,2011-10-05T14:00:00Z,27.6346,-97.2370,0.0,2.5,167.0,3.3,'11111222,11111222,11111222' 
TCOON,ioos:station:TCOON:005:1,2011-10-05T15:00:00Z,27.6346,-97.2370,0.0,4.0,135.0,5.2,'11111222,11111222,11111222' 
TCOON,ioos:station:TCOON:005:1,2011-10-05T16:00:00Z,27.6346,-97.2370,0.0,6.0,126.0,7.9,'11111222,11111222,11111222' 
TCOON,ioos:station:TCOON:005:1,2011-10-05T17:00:00Z,27.6346,-97.2370,0.0,6.9,122.0,8.0,'11111222,11111222,11111222' 
TCOON,ioos:station:TCOON:005:1,2011-10-05T18:00:00Z,27.6346,-97.2370,0.0,7.4,123.0,9.3,'11111222,11111222,11111222' 
TCOON,ioos:station:TCOON:005:1,2011-10-05T19:00:00Z,27.6346,-97.2370,0.0,7.4,116.0,9.2,'11111222,11111222,11111222' 
TCOON,ioos:station:TCOON:005:1,2011-10-05T20:00:00Z,27.6346,-97.2370,0.0,8.2,112.0,9.3,'11111222,11111222,11111222' 
TCOON,ioos:station:TCOON:005:1,2011-10-05T21:00:00Z,27.6346,-97.2370,0.0,7.4,133.0,9.2,'11111222,11111222,11111222' 
TCOON,ioos:station:TCOON:005:1,2011-10-05T22:00:00Z,27.6346,-97.2370,0.0,6.3,134.0,9.0,'11111222,11111222,11111222' 
TCOON,ioos:station:TCOON:005:1,2011-10-05T23:00:00Z,27.6346,-97.2370,0.0,6.4,124.0,7.8,'11111222,11111222,11111222' 
TCOON,ioos:station:TCOON:005:1,2011-10-06T00:00:00Z,27.6346,-97.2370,0.0,5.4,132.0,7.1,'11111222,11111222,11111222' 
TCOON,ioos:station:TCOON:005:1,2011-10-06T01:00:00Z,27.6346,-97.2370,0.0,6.3,126.0,8.0,'11111222,11111222,11111222' 
TCOON,ioos:station:TCOON:005:1,2011-10-06T02:00:00Z,27.6346,-97.2370,0.0,5.7,130.0,6.7,'11111222,11111222,11111222' 
TCOON,ioos:station:TCOON:005:1,2011-10-06T03:00:00Z,27.6346,-97.2370,0.0,5.8,132.0,7.7,'11111222,11111222,11111222' 
TCOON,ioos:station:TCOON:005:1,2011-10-06T04:00:00Z,27.6346,-97.2370,0.0,6.0,132.0,7.7,'11111222,11111222,11111222' 
TCOON,ioos:station:TCOON:005:1,2011-10-06T05:00:00Z,27.6346,-97.2370,0.0,6.1,136.0,7.9,'11111222,11111222,11111222' 
TCOON,ioos:station:TCOON:005:1,2011-10-06T06:00:00Z,27.6346,-97.2370,0.0,5.9,142.0,7.6,'11111222,11111222,11111222' 
TCOON,ioos:station:TCOON:005:1,2011-10-06T07:00:00Z,27.6346,-97.2370,0.0,6.2,143.0,9.0,'11111222,11111222,11111222' 
TCOON,ioos:station:TCOON:005:1,2011-10-06T08:00:00Z,27.6346,-97.2370,0.0,5.4,141.0,7.0,'11111222,11111222,11111222' 
TCOON,ioos:station:TCOON:005:1,2011-10-06T09:00:00Z,27.6346,-97.2370,0.0,4.7,147.0,6.7,'11111222,11111222,11111222' 
TCOON,ioos:station:TCOON:005:1,2011-10-06T10:00:00Z,27.6346,-97.2370,0.0,3.4,146.0,4.9,'11111222,11111222,11111222' 
TCOON,ioos:station:TCOON:005:1,2011-10-06T11:00:00Z,27.6346,-97.2370,0.0,1.9,149.0,2.7,'11111222,11111222,11111222' 
TCOON,ioos:station:TCOON:005:1,2011-10-06T12:00:00Z,27.6346,-97.2370,0.0,0.9,160.0,1.4,'11111222,11111222,11111222' 
TCOON,ioos:station:TCOON:005:1,2011-10-06T13:00:00Z,27.6346,-97.2370,0.0,1.1,124.0,1.4,'11111222,11111222,11111222' 
TCOON,ioos:station:TCOON:005:1,2011-10-06T14:00:00Z,27.6346,-97.2370,0.0,0.3,55.0,0.7,'11111222,11111222,11111222' 
TCOON,ioos:station:TCOON:005:1,2011-10-06T15:00:00Z,27.6346,-97.2370,0.0,1.6,83.0,3.3,'11111222,11111222,11111222' 
TCOON,ioos:station:TCOON:005:1,2011-10-06T16:00:00Z,27.6346,-97.2370,0.0,2.3,46.0,3.1,'11111222,11111222,11111222' 
TCOON,ioos:station:TCOON:005:1,2011-10-06T17:00:00Z,27.6346,-97.2370,0.0,1.9,186.0,5.7,'11111222,11111222,11111222' 
TCOON,ioos:station:TCOON:005:1,2011-10-06T18:00:00Z,27.6346,-97.2370,0.0,3.3,129.0,5.4,'11111222,11111222,11111222' 
TCOON,ioos:station:TCOON:005:1,2011-10-06T19:00:00Z,27.6346,-97.2370,0.0,3.3,120.0,5.7,'11111222,11111222,11111222' 
TCOON,ioos:station:TCOON:005:1,2011-10-06T20:00:00Z,27.6346,-97.2370,0.0,5.9,122.0,7.2,'11111222,11111222,11111222' 
TCOON,ioos:station:TCOON:005:1,2011-10-06T21:00:00Z,27.6346,-97.2370,0.0,4.4,124.0,5.6,'11111222,11111222,11111222' 
TCOON,ioos:station:TCOON:005:1,2011-10-06T22:00:00Z,27.6346,-97.2370,0.0,5.7,123.0,7.8,'11111222,11111222,11111222' 
TCOON,ioos:station:TCOON:005:1,2011-10-06T23:00:00Z,27.6346,-97.2370,0.0,8.6,119.0,9.9,'11111222,11111222,11111222' 
TCOON,ioos:station:TCOON:005:1,2011-10-07T00:00:00Z,27.6346,-97.2370,0.0,7.3,143.0,9.9,'11111222,11111222,11111222' 
TCOON,ioos:station:TCOON:005:1,2011-10-07T01:00:00Z,27.6346,-97.2370,0.0,6.4,136.0,9.0,'11111222,11111222,11111222' 
TCOON,ioos:station:TCOON:005:1,2011-10-07T02:00:00Z,27.6346,-97.2370,0.0,5.7,129.0,8.2,'11111222,11111222,11111222' 
TCOON,ioos:station:TCOON:005:1,2011-10-07T03:00:00Z,27.6346,-97.2370,0.0,6.5,128.0,8.7,'11111222,11111222,11111222' 
TCOON,ioos:station:TCOON:005:1,2011-10-07T04:00:00Z,27.6346,-97.2370,0.0,7.6,134.0,9.4,'11111222,11111222,11111222' 
TCOON,ioos:station:TCOON:005:1,2011-10-07T05:00:00Z,27.6346,-97.2370,0.0,6.3,141.0,7.9,'11111222,11111222,11111222' 
TCOON,ioos:station:TCOON:005:1,2011-10-07T06:00:00Z,27.6346,-97.2370,0.0,6.2,144.0,9.8,'11111222,11111222,11111222' 
TCOON,ioos:station:TCOON:005:1,2011-10-07T07:00:00Z,27.6346,-97.2370,0.0,7.0,150.0,9.3,'11111222,11111222,11111222' 
TCOON,ioos:station:TCOON:005:1,2011-10-07T08:00:00Z,27.6346,-97.2370,0.0,5.3,147.0,8.7,'11111222,11111222,11111222' 
TCOON,ioos:station:TCOON:005:1,2011-10-07T09:00:00Z,27.6346,-97.2370,0.0,6.4,148.0,8.7,'11111222,11111222,11111222' 
TCOON,ioos:station:TCOON:005:1,2011-10-07T10:00:00Z,27.6346,-97.2370,0.0,6.7,149.0,10.3,'11111222,11111222,11111222' 
TCOON,ioos:station:TCOON:005:1,2011-10-07T11:00:00Z,27.6346,-97.2370,0.0,6.4,148.0,8.5,'11111222,11111222,11111222' 
TCOON,ioos:station:TCOON:005:1,2011-10-07T12:00:00Z,27.6346,-97.2370,0.0,5.8,148.0,8.1,'11111222,11111222,11111222' 
TCOON,ioos:station:TCOON:005:1,2011-10-07T13:00:00Z,27.6346,-97.2370,0.0,5.3,150.0,9.0,'11111222,11111222,11111222' 
TCOON,ioos:station:TCOON:005:1,2011-10-07T14:00:00Z,27.6346,-97.2370,0.0,7.4,147.0,9.2,'11111222,11111222,11111222' 
TCOON,ioos:station:TCOON:005:1,2011-10-07T15:00:00Z,27.6346,-97.2370,0.0,8.6,139.0,10.1,'11111222,11111222,11111222' 
TCOON,ioos:station:TCOON:005:1,2011-10-07T16:00:00Z,27.6346,-97.2370,0.0,7.2,144.0,10.4,'11111222,11111222,11111222' 
TCOON,ioos:station:TCOON:005:1,2011-10-07T17:00:00Z,27.6346,-97.2370,0.0,7.0,141.0,10.0,'11111222,11111222,11111222' 
TCOON,ioos:station:TCOON:005:1,2011-10-07T18:00:00Z,27.6346,-97.2370,0.0,7.7,143.0,10.4,'11111222,11111222,11111222' 
TCOON,ioos:station:TCOON:005:1,2011-10-07T19:00:00Z,27.6346,-97.2370,0.0,8.2,130.0,,'1111122,1111122,1111122' 
TCOON,ioos:station:TCOON:005:1,2011-10-07T20:00:00Z,27.6346,-97.2370,0.0,8.7,130.0,,'1111122,1111122,1111122' 
TCOON,ioos:station:TCOON:005:1,2011-10-07T21:00:00Z,27.6346,-97.2370,0.0,9.8,130.0,,'1111122,1111122,1111122' 
TCOON,ioos:station:TCOON:005:1,2011-10-07T22:00:00Z,27.6346,-97.2370,0.0,9.8,120.0,,'1111122,1111122,1111122' 
TCOON,ioos:station:TCOON:005:1,2011-10-07T23:00:00Z,27.6346,-97.2370,0.0,7.2,130.0,,'1111122,1111122,1111122' 
TCOON,ioos:station:TCOON:005:1,2011-10-08T00:00:00Z,27.6346,-97.2370,0.0,7.2,130.0,,'1111122,1111122,1111122' 
TCOON,ioos:station:TCOON:005:1,2011-10-08T01:00:00Z,27.6346,-97.2370,0.0,6.7,140.0,,'1111122,1111122,1111122' 
TCOON,ioos:station:TCOON:005:1,2011-10-08T02:00:00Z,27.6346,-97.2370,0.0,6.7,130.0,,'1111122,1111122,1111122' 
TCOON,ioos:station:TCOON:005:1,2011-10-08T03:00:00Z,27.6346,-97.2370,0.0,6.7,120.0,,'1111122,1111122,1111122' 
TCOON,ioos:station:TCOON:005:1,2011-10-08T04:00:00Z,27.6346,-97.2370,0.0,6.2,130.0,,'1111122,1111122,1111122' 
TCOON,ioos:station:TCOON:005:1,2011-10-08T05:00:00Z,27.6346,-97.2370,0.0,9.3,120.0,,'1111122,1111122,1111122' 
TCOON,ioos:station:TCOON:005:1,2011-10-08T06:00:00Z,27.6346,-97.2370,0.0,5.7,130.0,,'1111122,1111122,1111122' 
TCOON,ioos:station:TCOON:005:1,2011-10-08T07:00:00Z,27.6346,-97.2370,0.0,7.2,130.0,,'1111122,1111122,1111122' 
TCOON,ioos:station:TCOON:005:1,2011-10-08T08:00:00Z,27.6346,-97.2370,0.0,6.7,140.0,,'1111122,1111122,1111122' 
TCOON,ioos:station:TCOON:005:1,2011-10-08T09:00:00Z,27.6346,-97.2370,0.0,8.2,140.0,,'1111122,1111122,1111122' 
TCOON,ioos:station:TCOON:005:1,2011-10-08T10:00:00Z,27.6346,-97.2370,0.0,8.2,140.0,,'1111122,1111122,1111122' 
TCOON,ioos:station:TCOON:005:1,2011-10-08T11:00:00Z,27.6346,-97.2370,0.0,7.7,150.0,,'1111122,1111122,1111122' 
TCOON,ioos:station:TCOON:005:1,2011-10-08T12:00:00Z,27.6346,-97.2370,0.0,6.2,140.0,,'1111122,1111122,1111122' 
TCOON,ioos:station:TCOON:005:1,2011-10-08T13:00:00Z,27.6346,-97.2370,0.0,5.7,150.0,,'1111122,1111122,1111122' 
TCOON,ioos:station:TCOON:005:1,2011-10-08T14:00:00Z,27.6346,-97.2370,0.0,6.2,140.0,,'1111122,1111122,1111122' 
TCOON,ioos:station:TCOON:005:1,2011-10-08T15:00:00Z,27.6346,-97.2370,0.0,7.2,140.0,,'1111122,1111122,1111122' 
TCOON,ioos:station:TCOON:005:1,2011-10-08T16:00:00Z,27.6346,-97.2370,0.0,7.2,130.0,,'1111122,1111122,1111122' 
TCOON,ioos:station:TCOON:005:1,2011-10-08T17:00:00Z,27.6346,-97.2370,0.0,7.2,150.0,,'1111122,1111122,1111122' 
TCOON,ioos:station:TCOON:005:1,2011-10-08T18:00:00Z,27.6346,-97.2370,0.0,7.7,130.0,,'1111122,1111122,1111122' 
TCOON,ioos:station:TCOON:005:1,2011-10-08T19:00:00Z,27.6346,-97.2370,0.0,7.7,140.0,,'1111122,1111122,1111122' 
TCOON,ioos:station:TCOON:005:1,2011-10-08T20:00:00Z,27.6346,-97.2370,0.0,7.7,150.0,,'1111122,1111122,1111122' 
TCOON,ioos:station:TCOON:005:1,2011-10-08T21:00:00Z,27.6346,-97.2370,0.0,7.2,140.0,,'1111122,1111122,1111122' 
TCOON,ioos:station:TCOON:005:1,2011-10-08T22:00:00Z,27.6346,-97.2370,0.0,7.7,140.0,,'1111122,1111122,1111122' 
TCOON,ioos:station:TCOON:005:1,2011-10-08T23:00:00Z,27.6346,-97.2370,0.0,7.2,130.0,,'1111122,1111122,1111122' 
TCOON,ioos:station:TCOON:005:1,2011-10-09T00:00:00Z,27.6346,-97.2370,0.0,6.2,130.0,,'1111122,1111122,1111122' 
TCOON,ioos:station:TCOON:005:1,2011-10-09T01:00:00Z,27.6346,-97.2370,0.0,6.2,130.0,,'1111122,1111122,1111122' 
TCOON,ioos:station:TCOON:005:1,2011-10-09T02:00:00Z,27.6346,-97.2370,0.0,7.7,130.0,,'1111122,1111122,1111122' 
TCOON,ioos:station:TCOON:005:1,2011-10-09T03:00:00Z,27.6346,-97.2370,0.0,6.2,130.0,,'1111122,1111122,1111122' 
TCOON,ioos:station:TCOON:005:1,2011-10-09T04:00:00Z,27.6346,-97.2370,0.0,6.2,130.0,,'1111122,1111122,1111122' 
TCOON,ioos:station:TCOON:005:1,2011-10-09T05:00:00Z,27.6346,-97.2370,0.0,7.2,130.0,,'1111122,1111122,1111122' 
TCOON,ioos:station:TCOON:005:1,2011-10-09T06:00:00Z,27.6346,-97.2370,0.0,6.2,130.0,,'1111122,1111122,1111122' 
TCOON,ioos:station:TCOON:005:1,2011-10-09T07:00:00Z,27.6346,-97.2370,0.0,5.1,150.0,,'1111122,1111122,1111122' 
TCOON,ioos:station:TCOON:005:1,2011-10-09T08:00:00Z,27.6346,-97.2370,0.0,7.2,140.0,,'1111122,1111122,1111122' 
TCOON,ioos:station:TCOON:005:1,2011-10-09T09:00:00Z,27.6346,-97.2370,0.0,6.2,150.0,,'1111122,1111122,1111122' 
TCOON,ioos:station:TCOON:005:1,2011-10-09T10:00:00Z,27.6346,-97.2370,0.0,5.7,150.0,,'1111122,1111122,1111122' 
TCOON,ioos:station:TCOON:005:1,2011-10-09T11:00:00Z,27.6346,-97.2370,0.0,5.7,150.0,,'1111122,1111122,1111122' 
TCOON,ioos:station:TCOON:005:1,2011-10-09T12:00:00Z,27.6346,-97.2370,0.0,5.1,150.0,,'1111122,1111122,1111122' 
TCOON,ioos:station:TCOON:005:1,2011-10-09T13:00:00Z,27.6346,-97.2370,0.0,4.1,150.0,,'1111122,1111122,1111122' 